Location: Bonnesvalyn
(49.1218°N, 3.3177°E)
Time: 08:53:40
(UTC+00:00)

Cosmos 2369 Rocket - Pass Details

Date: 09 February 2023
Orbit: 829 x 852 km, 71.0° (Epoch: 21 March)

Event Time Altitude Azimuth Distance (km) Brightness Sun altitude
Rises 18:39:29 0° 335° (NNW) 3,383 5.6 -17.2°
Reaches altitude 10° 18:42:54 10° 356° (N) 2,447 4.6 -17.8°
Maximum altitude 18:46:24 17° 35° (NE) 2,019 3.8 -18.4°
Enters shadow 18:46:37 17° 38° (NE) 2,021 3.8 -18.4°
